JST88 YMAV-YMML

Flight info

Callsign JST88
Flight time 0h 11m
Altitude 5000
Route ML
Aircraft A20N/M-SDE2E3FGHIRWXY/LB1

Departure

Time 2026-04-30 10:19
Airport Melbourne Avalon International Airport (YMAV)

Arrival

Time 2026-04-30 10:31
Airport Melbourne Airport (YMML)
Time Latitude Longitude Altitude Speed Heading
2026-04-30 10:03 -38.02710 144.47213 35 ft 0 kts
2026-04-30 10:07 -38.02716 144.47212 34 ft 3 kts
2026-04-30 10:08 -38.02733 144.47205 34 ft 3 kts 32°
2026-04-30 10:08 -38.02746 144.47191 34 ft 3 kts 56°
2026-04-30 10:08 -38.02754 144.47171 33 ft 3 kts 78°
2026-04-30 10:08 -38.02756 144.47153 35 ft 0 kts 97°
2026-04-30 10:09 -38.02756 144.47158 33 ft 3 kts 97°
2026-04-30 10:09 -38.02783 144.47214 35 ft 13 kts 107°
2026-04-30 10:10 -38.02819 144.47346 35 ft 18 kts 142°
2026-04-30 10:10 -38.02949 144.47343 34 ft 21 kts 190°
2026-04-30 10:10 -38.03097 144.47308 35 ft 23 kts 198°
2026-04-30 10:10 -38.03219 144.47180 34 ft 24 kts 234°
2026-04-30 10:11 -38.03352 144.47054 36 ft 25 kts 194°
2026-04-30 10:11 -38.03528 144.47018 35 ft 26 kts 188°
2026-04-30 10:11 -38.03716 144.46987 35 ft 28 kts 187°
2026-04-30 10:11 -38.03915 144.46953 34 ft 30 kts 188°
2026-04-30 10:12 -38.04122 144.46919 34 ft 31 kts 187°
2026-04-30 10:12 -38.04338 144.46882 35 ft 32 kts 187°
2026-04-30 10:12 -38.04563 144.46845 36 ft 33 kts 187°
2026-04-30 10:12 -38.04793 144.46807 36 ft 34 kts 188°
2026-04-30 10:13 -38.05028 144.46767 35 ft 35 kts 187°
2026-04-30 10:13 -38.05265 144.46727 36 ft 33 kts 187°
2026-04-30 10:13 -38.05410 144.46677 36 ft 12 kts 221°
2026-04-30 10:13 -38.05415 144.46668 35 ft 0 kts 232°
2026-04-30 10:15 -38.05426 144.46649 36 ft 6 kts 236°
2026-04-30 10:15 -38.05445 144.46562 36 ft 15 kts 274°
2026-04-30 10:15 -38.05371 144.46493 35 ft 7 kts
2026-04-30 10:16 -38.05363 144.46495 37 ft 0 kts
2026-04-30 10:18 -38.05354 144.46496 35 ft 3 kts
2026-04-30 10:18 -38.05279 144.46511 35 ft 40 kts
2026-04-30 10:18 -38.04764 144.46598 37 ft 106 kts
2026-04-30 10:19 -38.02750 144.46948 527 ft 160 kts
2026-04-30 10:19 -38.02375 144.47010 793 ft 157 kts
2026-04-30 10:19 -38.01343 144.47179 1664 ft 143 kts
2026-04-30 10:19 -38.00342 144.47351 2220 ft 152 kts
2026-04-30 10:20 -37.99252 144.47659 2613 ft 172 kts 19°
2026-04-30 10:20 -37.97312 144.49984 3691 ft 211 kts 50°
2026-04-30 10:20 -37.96472 144.51537 4366 ft 219 kts 50°
2026-04-30 10:21 -37.95618 144.53131 4485 ft 219 kts 51°
2026-04-30 10:21 -37.94749 144.54755 4551 ft 224 kts 51°
2026-04-30 10:21 -37.93890 144.56358 4663 ft 222 kts 49°
2026-04-30 10:21 -37.92858 144.57829 4779 ft 219 kts 36°
2026-04-30 10:22 -37.91677 144.58995 4892 ft 219 kts 32°
2026-04-30 10:22 -37.90588 144.60350 4991 ft 226 kts 55°
2026-04-30 10:22 -37.89969 144.62243 5001 ft 232 kts 66°
2026-04-30 10:22 -37.89476 144.64145 4955 ft 226 kts 68°
2026-04-30 10:23 -37.89014 144.66002 4865 ft 216 kts 67°
2026-04-30 10:23 -37.88564 144.67784 4653 ft 210 kts 66°
2026-04-30 10:23 -37.88108 144.69534 4359 ft 209 kts 65°
2026-04-30 10:23 -37.87653 144.71256 4155 ft 204 kts 65°
2026-04-30 10:24 -37.87198 144.72952 3861 ft 204 kts 64°
2026-04-30 10:24 -37.86741 144.74643 3600 ft 202 kts 64°
2026-04-30 10:24 -37.86288 144.76321 3323 ft 201 kts 65°
2026-04-30 10:24 -37.85840 144.77979 3109 ft 196 kts 65°
2026-04-30 10:25 -37.85394 144.79626 3032 ft 202 kts 65°
2026-04-30 10:25 -37.84943 144.81293 3014 ft 199 kts 65°
2026-04-30 10:25 -37.84502 144.82933 2900 ft 196 kts 65°
2026-04-30 10:25 -37.84084 144.84501 2842 ft 180 kts 65°
2026-04-30 10:26 -37.83583 144.85848 2735 ft 159 kts 43°
2026-04-30 10:26 -37.82736 144.86550 2645 ft 138 kts 11°
2026-04-30 10:26 -37.81829 144.86546 2523 ft 125 kts 351°
2026-04-30 10:26 -37.80918 144.86369 2517 ft 137 kts 352°
2026-04-30 10:27 -37.79999 144.86205 2513 ft 132 kts 353°
2026-04-30 10:27 -37.79404 144.86105 2513 ft 130 kts 353°
2026-04-30 10:27 -37.78494 144.85961 2361 ft 131 kts 353°
2026-04-30 10:27 -37.77293 144.85759 2180 ft 123 kts 353°
2026-04-30 10:28 -37.76733 144.85648 2108 ft 125 kts 352°
2026-04-30 10:28 -37.75877 144.85459 1951 ft 125 kts 351°
2026-04-30 10:28 -37.75015 144.85272 1731 ft 126 kts 352°
2026-04-30 10:28 -37.74151 144.85114 1487 ft 126 kts 354°
2026-04-30 10:29 -37.73246 144.84976 1265 ft 135 kts 354°
2026-04-30 10:29 -37.72325 144.84831 1012 ft 131 kts 352°
2026-04-30 10:29 -37.71426 144.84638 840 ft 133 kts 350°
2026-04-30 10:29 -37.70507 144.84443 742 ft 134 kts 352°
2026-04-30 10:30 -37.69607 144.84291 619 ft 130 kts 353°
2026-04-30 10:30 -37.68705 144.84117 431 ft 133 kts 352°
2026-04-30 10:30 -37.67809 144.83954 363 ft 119 kts 352°
2026-04-30 10:30 -37.67248 144.83854 377 ft 51 kts 352°
2026-04-30 10:31 -37.66948 144.83861 387 ft 35 kts 18°
2026-04-30 10:31 -37.66873 144.83898 390 ft 0 kts 20°
2026-04-30 10:31 -37.66868 144.83901 390 ft 2 kts 20°
2026-04-30 10:31 -37.66820 144.83923 391 ft 11 kts 20°
2026-04-30 10:32 -37.66745 144.83980 390 ft 14 kts 49°
2026-04-30 10:32 -37.66727 144.84110 394 ft 17 kts 109°
2026-04-30 10:32 -37.66831 144.84201 390 ft 21 kts 169°
2026-04-30 10:32 -37.66992 144.84232 386 ft 25 kts 173°
2026-04-30 10:33 -37.67170 144.84263 382 ft 17 kts 172°
2026-04-30 10:33 -37.67201 144.84287 382 ft 14 kts 126°
2026-04-30 10:33 -37.67199 144.84436 384 ft 20 kts 96°
2026-04-30 10:33 -37.67200 144.84616 386 ft 14 kts 85°
2026-04-30 10:34 -37.67257 144.84656 385 ft 1 kts 166°
2026-04-30 10:34 -37.67264 144.84659 385 ft 0 kts 166°